Location: Palo Alto
(37.4420°N, 122.1420°W)
Time: 09:49:06
(UTC-07:00)

X-37B - Pass Details

Date: 14 August 2020
Orbit: 386 x 387 km, 45.0° (Epoch: 18 September)

Event Time Altitude Azimuth Distance (km) Brightness Sun altitude
Rises 22:03:21 0° 301° (WNW) 2,265 5.9 -22.0°
Reaches altitude 10° 22:05:37 10° 313° (NW) 1,410 4.5 -22.4°
Enters shadow 22:08:06 27° 3° (N) 773 2.4 -22.8°
